Nashville, TN (JWN)

Redbird FMX


Given the close proximity to downtown Nashville, Tennessee, John Tune (JWN) is a great place for the general aviation enthusiast or for someone learning how to fly. Wings of Eagles Aviation’s office is located in Hangar 1, and is accessible from the road or the ramp. The FBO is open 24 hours a day 7 days a week so there will always be someone available for help or fuel.

Address:
210 Tune Airport Dr.
Nashville, TN 37209

Phone: (615) 979-9222

Business Hours:
Monday-Sunday 7a-10p


NOAA Weather

Nashville International Airport, TN

Last Updated on Oct 24 2014, 12:53 pm CDT

Current Conditions: A Few Clouds

NOAA Icon

Temp: 67°F

Wind: North at 4mph

Humidity: 39%

Dewpoint: 41.0°F

Your 5-Day Forecast at a Glance

Available data for KBNA from the past hour

METAR
KBNA 241753Z 02004KT 10SM FEW130 19/05 A3011 RMK AO2 SLP195 T01940050 10200 20072 58010